EW6851 Weather Reports


Display with metric or nautical units.
time (UTC)temp
F
wind
direction
speed
MPH
gust
MPH
rain 1hr
in
rain 24hr
in
rain mn
in
humidity
%
barometer
mb
20260508132648 75 318 5.0 8.0 0.00 0.00 0.00 58 1012.4
20260508132147 76 243 3.0 7.0 0.00 0.00 0.00 56 1012.3
20260508131647 76 314 6.0 5.0 0.00 0.00 0.00 58 1012.4
20260508131147 75 302 2.0 7.0 0.00 0.00 0.00 57 1012.3
20260508130654 75 350 1.0 6.0 0.00 0.00 0.00 58 1012.2
20260508130148 75 350 2.0 6.0 0.00 0.00 0.00 58 1012.2
20260508125647 75 313 2.0 5.0 0.00 0.00 0.00 59 1012.3
20260508125154 75 355 0.0 6.0 0.00 0.00 0.00 59 1012.3
20260508124648 75 336 4.0 7.0 0.00 0.00 0.00 58 1012.3
20260508124154 75 283 4.0 8.0 0.00 0.00 0.00 57 1012.3
20260508123648 75 308 7.0 7.0 0.00 0.00 0.00 57 1012.2
20260508123151 76 282 5.0 9.0 0.00 0.00 0.00 55 1012.3
20260508122648 76 292 6.0 7.0 0.00 0.00 0.00 55 1012.2
20260508122148 75 298 4.0 10.0 0.00 0.00 0.00 56 1012.2
20260508121648 75 0 5.0 10.0 0.00 0.00 0.00 55 1012.2
20260508121154 75 253 0.0 8.0 0.00 0.00 0.00 55 1012.1
20260508120651 76 246 4.0 8.0 0.00 0.00 0.00 53 1012.2
20260508120148 76 267 3.0 10.0 0.00 0.00 0.00 53 1012.1
20260508115657 76 300 8.0 10.0 0.00 0.00 0.00 53 1012.0
20260508115154 75 316 2.0 10.0 0.00 0.00 0.00 53 1012.0
20260508114654 75 282 3.0 9.0 0.00 0.00 0.00 54 1011.9
20260508114154 75 44 3.0 10.0 0.00 0.00 0.00 54 1012.0
20260508113648 75 302 4.0 10.0 0.00 0.00 0.00 54 1011.9
20260508113148 75 310 7.0 11.0 0.00 0.00 0.00 54 1011.9
20260508112657 75 333 2.0 11.0 0.00 0.00 0.00 55 1011.9
20260508112151 75 329 7.0 12.0 0.00 0.00 0.00 55 1011.9
20260508111648 75 315 8.0 10.0 0.00 0.00 0.00 53 1011.9
20260508111151 75 298 2.0 10.0 0.00 0.00 0.00 53 1011.9
20260508110648 75 292 6.0 9.0 0.00 0.00 0.00 52 1011.9
20260508110151 75 255 7.0 10.0 0.00 0.00 0.00 53 1011.9
20260508105651 75 333 4.0 8.0 0.00 0.00 0.00 54 1011.8
20260508105148 75 316 4.0 8.0 0.00 0.00 0.00 54 1011.9
20260508104651 75 209 4.0 6.0 0.00 0.00 0.00 56 1011.9
20260508104154 75 257 3.0 7.0 0.00 0.00 0.00 57 1011.9
20260508103654 75 169 3.0 6.0 0.00 0.00 0.00 57 1012.0
20260508103151 74 311 5.0 9.0 0.00 0.00 0.00 59 1012.1
20260508102651 74 311 3.0 8.0 0.00 0.00 0.00 59 1012.0
20260508102148 74 271 2.0 8.0 0.00 0.00 0.00 60 1012.0
20260508101651 73 338 4.0 8.0 0.00 0.00 0.00 60 1012.0
20260508101151 73 305 4.0 9.0 0.00 0.00 0.00 60 1012.0
20260508100648 73 293 5.0 9.0 0.00 0.00 0.00 60 1012.1
20260508100148 73 284 2.0 9.0 0.00 0.00 0.00 59 1012.1
20260508095651 73 317 5.0 9.0 0.00 0.00 0.00 59 1012.0
20260508095148 74 309 6.0 8.0 0.00 0.00 0.00 59 1012.1
20260508094648 74 280 8.0 9.0 0.00 0.00 0.00 60 1012.1
20260508094151 74 323 3.0 8.0 0.00 0.00 0.00 60 1012.1
20260508093648 74 311 4.0 8.0 0.00 0.00 0.00 59 1012.1
20260508093148 74 301 5.0 8.0 0.00 0.00 0.00 60 1012.0
20260508092649 74 312 3.0 7.0 0.00 0.00 0.00 61 1011.8
20260508092148 73 9 2.0 7.0 0.00 0.00 0.00 60 1011.6
20260508091655 73 301 6.0 11.0 0.00 0.00 0.00 61 1011.6
20260508091151 73 326 2.0 11.0 0.00 0.00 0.00 61 1011.5
20260508090651 73 298 10.0 10.0 0.00 0.00 0.00 62 1011.5
20260508090151 73 273 4.0 8.0 0.00 0.00 0.00 61 1011.4
20260508085657 73 286 2.0 6.0 0.00 0.00 0.00 61 1011.5
20260508085151 73 327 0.0 6.0 0.00 0.00 0.00 62 1011.4
20260508084648 73 328 5.0 8.0 0.00 0.00 0.00 63 1011.4
20260508084148 73 310 3.0 6.0 0.00 0.00 0.00 63 1011.4
20260508083648 72 314 1.0 6.0 0.00 0.00 0.00 63 1011.4
20260508083148 72 315 3.0 8.0 0.00 0.00 0.00 63 1011.4
20260508082648 72 304 7.0 9.0 0.00 0.00 0.00 62 1011.3
20260508082154 73 355 5.0 7.0 0.00 0.00 0.00 62 1011.2
20260508081651 72 355 3.0 8.0 0.00 0.00 0.00 62 1011.2
20260508081148 72 290 7.0 10.0 0.00 0.00 0.00 63 1011.2
20260508080649 72 339 5.0 9.0 0.00 0.00 0.00 62 1011.2
20260508080154 72 300 4.0 8.0 0.00 0.00 0.00 61 1011.2
20260508075648 73 16 3.0 7.0 0.00 0.00 0.00 62 1011.2
20260508075148 73 307 4.0 7.0 0.00 0.00 0.00 61 1011.0
20260508074648 72 305 1.0 6.0 0.00 0.00 0.00 61 1011.1
20260508074148 72 269 1.0 5.0 0.00 0.00 0.00 62 1011.2
20260508073652 72 281 0.0 4.0 0.00 0.00 0.00 62 1011.2
20260508073154 72 217 0.0 5.0 0.00 0.00 0.00 62 1011.1
20260508072202 72 285 2.0 5.0 0.00 0.00 0.00 63 1011.1
20260508071659 71 301 2.0 4.0 0.00 0.00 0.00 64 1011.1
20260508071159 71 288 0.0 4.0 0.00 0.00 0.00 64 1011.0
20260508070659 70 269 0.0 5.0 0.00 0.00 0.00 64 1011.2
20260508070159 70 295 3.0 4.0 0.00 0.00 0.00 64 1011.2
20260508065659 70 278 1.0 4.0 0.00 0.00 0.00 65 1011.1
20260508065159 70 305 0.0 1.0 0.00 0.00 0.00 66 1011.1
20260508064702 70 270 0.0 4.0 0.00 0.00 0.00 67 1011.0
20260508064159 70 326 1.0 4.0 0.00 0.00 0.00 67 1011.0
20260508063659 70 290 1.0 4.0 0.00 0.00 0.00 66 1011.0
20260508063159 70 304 0.0 0.0 0.00 0.00 0.00 67 1011.0
20260508062659 69 304 0.0 0.0 0.00 0.00 0.00 67 1011.0
20260508062200 69 304 0.0 0.0 0.00 0.00 0.00 67 1010.9
20260508061659 69 304 0.0 1.0 0.00 0.00 0.00 67 1010.9
20260508061205 69 304 0.0 1.0 0.00 0.00 0.00 68 1010.7
20260508060705 69 304 0.0 2.0 0.00 0.00 0.00 69 1010.7
20260508060208 68 304 0.0 3.0 0.00 0.00 0.00 69 1010.6
20260508055659 68 153 1.0 1.0 0.00 0.00 0.00 69 1010.6
20260508055205 68 153 0.0 2.0 0.00 0.00 0.00 69 1010.6
20260508054659 67 153 0.0 0.0 0.00 0.00 0.00 69 1010.5
20260508054205 67 153 0.0 1.0 0.00 0.00 0.00 70 1010.5
20260508053703 67 153 0.0 1.0 0.00 0.00 0.00 70 1010.4
20260508053159 67 153 0.0 2.0 0.00 0.00 0.00 71 1010.3
20260508052659 66 153 0.0 3.0 0.00 0.00 0.00 72 1010.2
20260508052202 66 153 0.0 2.0 0.00 0.00 0.00 72 1010.2
20260508051705 65 153 0.0 2.0 0.00 0.00 0.00 72 1010.2
20260508051159 65 153 2.0 5.0 0.00 0.00 0.00 72 1010.1
20260508050659 65 145 5.0 6.0 0.00 0.00 0.00 72 1010.0
20260508050200 65 126 1.0 5.0 0.00 0.00 0.00 72 1009.9
20260508045702 65 171 1.0 4.0 0.00 0.00 0.00 72 1009.7
20260508045202 65 123 3.0 4.0 0.00 0.00 0.00 73 1009.7
20260508044708 65 138 2.0 4.0 0.00 0.00 0.00 73 1009.6
20260508044159 64 165 0.0 2.0 0.00 0.00 0.00 74 1009.6
20260508043705 64 165 0.0 3.0 0.00 0.00 0.00 74 1009.6
20260508043159 64 160 0.0 5.0 0.00 0.00 0.00 74 1009.5
20260508042702 64 157 0.0 4.0 0.00 0.00 0.00 73 1009.5
20260508042159 65 159 3.0 4.0 0.00 0.00 0.00 74 1009.5
20260508041702 65 153 0.0 2.0 0.00 0.00 0.00 74 1009.5
20260508041159 65 153 1.0 2.0 0.00 0.00 0.00 73 1009.5
20260508040659 65 147 1.0 5.0 0.00 0.00 0.00 73 1009.4
20260508040202 65 120 2.0 4.0 0.00 0.00 0.00 72 1009.2
20260508035705 65 126 0.0 1.0 0.00 0.00 0.00 72 1009.1
20260508035159 65 126 0.0 3.0 0.00 0.00 0.00 72 1009.0
20260508034659 66 152 0.0 3.0 0.00 0.00 0.00 71 1009.0
20260508034202 66 139 0.0 3.0 0.00 0.00 0.00 71 1008.9
20260508033659 66 154 0.0 3.0 0.00 0.00 0.00 71 1009.0
20260508033202 66 153 0.0 1.0 0.00 0.00 0.00 70 1009.1
20260508032702 66 153 0.0 2.0 0.00 0.00 0.00 70 1009.0
20260508032159 67 153 0.0 2.0 0.00 0.00 0.00 70 1008.9
20260508031705 67 153 0.0 1.0 0.00 0.00 0.00 70 1008.7
20260508031159 67 153 0.0 0.0 0.00 0.00 0.00 69 1008.7
20260508030705 67 153 0.0 0.0 0.00 0.00 0.00 69 1008.8
20260508030200 67 153 0.0 2.0 0.00 0.00 0.00 69 1008.7
20260508025702 67 153 0.0 2.0 0.00 0.00 0.00 69 1008.8
20260508025159 67 140 2.0 3.0 0.00 0.00 0.00 69 1008.7
20260508024659 67 152 0.0 3.0 0.00 0.00 0.00 69 1008.6
20260508024205 67 190 0.0 2.0 0.00 0.00 0.00 68 1008.7
20260508023702 67 214 0.0 0.0 0.00 0.00 0.00 68 1008.7
20260508023202 67 214 0.0 3.0 0.00 0.00 0.00 68 1008.7
20260508022705 67 196 0.0 4.0 0.00 0.00 0.00 68 1008.7
20260508022205 67 219 0.0 5.0 0.00 0.00 0.00 68 1008.6
20260508021708 68 232 3.0 4.0 0.00 0.00 0.00 67 1008.6
20260508021202 68 165 0.0 2.0 0.00 0.00 0.00 67 1008.5
20260508020705 68 165 1.0 4.0 0.00 0.00 0.00 66 1008.4
20260508020200 68 154 1.0 4.0 0.00 0.00 0.00 66 1008.3
20260508015700 68 196 3.0 5.0 0.00 0.00 0.00 66 1008.4
20260508015157 68 180 2.0 5.0 0.00 0.00 0.00 67 1008.5
20260508014657 68 196 2.0 3.0 0.00 0.00 0.00 67 1008.4
20260508014157 68 207 0.0 6.0 0.00 0.00 0.00 67 1008.4
20260508013700 68 180 0.0 3.0 0.00 0.00 0.00 67 1008.3
20260508013201 68 222 0.0 2.0 0.00 0.00 0.00 67 1008.3
20260508012706 68 229 2.0 3.0 0.00 0.00 0.00 67 1008.3
20260508012201 68 203 4.0 5.0 0.00 0.00 0.00 67 1008.4
20260508011657 68 201 3.0 5.0 0.00 0.00 0.00 66 1008.5
20260508011200 68 247 2.0 6.0 0.00 0.00 0.00 65 1008.5
20260508010703 69 227 2.0 4.0 0.00 0.00 0.00 65 1008.5
20260508010157 69 24 0.0 0.0 0.00 0.00 0.00 64 1008.5
20260508005700 69 24 0.0 2.0 0.00 0.00 0.00 64 1008.5
20260508005157 69 24 0.0 3.0 0.00 0.00 0.00 63 1008.5
20260508004658 70 36 2.0 3.0 0.00 0.00 0.00 62 1008.3
20260508004157 70 193 0.0 6.0 0.00 0.00 0.00 61 1008.4
20260508003657 69 193 6.0 8.0 0.00 0.00 0.00 62 1008.6
20260508003203 69 196 6.0 9.0 0.00 0.00 0.00 63 1008.6
20260508002706 69 173 4.0 12.0 0.00 0.00 0.00 64 1008.7
20260508002203 69 204 6.0 11.0 0.00 0.00 0.00 64 1009.0
20260508001657 69 208 8.0 10.0 0.00 0.00 0.00 64 1009.2
20260508001200 69 190 5.0 8.0 0.00 0.00 0.00 64 1009.1
20260508000657 69 209 7.0 11.0 0.00 0.00 0.00 65 1008.9
20260508000157 69 180 7.0 7.0 0.00 0.00 0.00 65 1008.8
20260507235657 68 185 3.0 5.0 0.00 0.00 0.00 64 1009.0
20260507235203 68 136 2.0 7.0 0.00 0.00 0.00 64 1009.0
20260507234701 68 103 2.0 7.0 0.00 0.00 0.00 64 1009.1
20260507234157 68 113 5.0 8.0 0.00 0.00 0.00 64 1009.2
20260507233700 68 100 3.0 7.0 0.00 0.00 0.00 64 1009.3
20260507233200 68 148 0.0 6.0 0.00 0.00 0.00 65 1009.4
20260507232657 68 102 0.0 8.0 0.00 0.00 0.00 65 1009.5
20260507232203 68 88 2.0 8.0 0.00 0.00 0.00 66 1009.4
20260507231701 68 113 4.0 9.0 0.00 0.00 0.00 66 1009.8
20260507231157 68 144 1.0 10.0 0.00 0.00 0.00 66 1009.7
20260507230700 68 146 1.0 3.0 0.00 0.00 0.00 66 1009.6
20260507230157 68 143 2.0 2.0 0.00 0.00 0.00 66 1009.5
20260507225700 68 121 0.0 3.0 0.00 0.00 0.00 67 1009.2
20260507225157 68 144 2.0 6.0 0.00 0.00 0.00 67 1009.2
20260507224700 68 125 4.0 5.0 0.00 0.00 0.00 68 1009.3
20260507224200 68 168 3.0 6.0 0.00 0.00 0.00 68 1009.2
20260507223703 68 154 5.0 6.0 0.00 0.00 0.00 68 1009.3
20260507223157 68 143 3.0 7.0 0.00 0.00 0.00 68 1009.2
20260507222700 68 102 1.0 7.0 0.00 0.00 0.00 68 1009.2
20260507222203 68 135 2.0 7.0 0.00 0.00 0.00 67 1009.3
20260507221657 68 166 4.0 4.0 0.00 0.00 0.00 68 1009.2
20260507221200 68 139 3.0 7.0 0.00 0.00 0.00 68 1009.3
20260507220700 68 163 0.0 9.0 0.00 0.00 0.00 68 1009.3
20260507220158 68 169 2.0 11.0 0.00 0.00 0.00 68 1009.4
20260507215704 68 158 3.0 9.0 0.00 0.00 0.00 68 1009.5
20260507215157 68 202 2.0 9.0 0.00 0.00 0.00 68 1009.6
20260507214657 68 198 3.0 5.0 0.00 0.00 0.00 68 1009.7
20260507214158 68 92 0.0 1.0 0.00 0.00 0.00 68 1009.6
20260507213657 68 92 0.0 3.0 0.00 0.00 0.00 67 1009.5
20260507213200 68 92 0.0 3.0 0.00 0.00 0.00 67 1009.4
20260507212658 68 169 0.0 8.0 0.00 0.00 0.00 68 1009.3
20260507212157 68 76 3.0 9.0 0.00 0.00 0.00 68 1009.4
20260507211700 68 88 7.0 8.0 0.00 0.00 0.00 69 1009.6
20260507211201 68 169 2.0 9.0 0.00 0.00 0.00 69 1009.6
20260507210701 68 150 9.0 11.0 0.00 0.00 0.00 69 1009.9
20260507210157 68 161 3.0 11.0 0.00 0.00 0.00 69 1009.8
20260507205658 68 175 4.0 9.0 0.00 0.00 0.00 68 1009.8
20260507205158 68 178 3.0 8.0 0.00 0.00 0.00 68 1009.7
20260507204704 68 180 4.0 8.0 0.00 0.00 0.00 68 1009.4
20260507204158 68 163 1.0 8.0 0.00 0.00 0.00 68 1009.3
20260507203701 69 167 3.0 10.0 0.00 0.00 0.00 67 1009.3
20260507203158 69 128 1.0 3.0 0.00 0.00 0.00 67 1009.3
20260507202701 69 102 0.0 7.0 0.00 0.00 0.00 67 1009.3
20260507202204 68 153 0.0 9.0 0.00 0.00 0.00 67 1009.3
20260507201658 69 203 4.0 11.0 0.00 0.00 0.00 67 1009.5
20260507201201 68 174 0.0 7.0 0.00 0.00 0.00 67 1009.5
20260507200658 68 187 2.0 8.0 0.00 0.00 0.00 68 1009.5
20260507200158 68 174 3.0 11.0 0.00 0.00 0.00 68 1009.6
20260507195701 68 163 1.0 9.0 0.00 0.00 0.00 68 1009.7
20260507195201 68 170 1.0 10.0 0.00 0.00 0.00 68 1009.8
20260507194658 68 170 5.0 11.0 0.00 0.00 0.00 68 1009.8
20260507194158 69 201 6.0 7.0 0.00 0.00 0.00 67 1009.7
20260507193658 68 223 3.0 3.0 0.00 0.00 0.00 67 1009.4
20260507193158 69 220 2.0 4.0 0.00 0.00 0.00 67 1009.3
20260507192701 69 208 0.0 3.0 0.00 0.00 0.00 67 1009.3
20260507192158 68 95 0.0 1.0 0.00 0.00 0.00 67 1009.1
20260507191701 68 95 0.0 2.0 0.00 0.00 0.00 67 1009.1
20260507191158 68 95 1.0 2.0 0.00 0.00 0.00 68 1009.0
20260507190704 68 95 0.0 0.0 0.00 0.00 0.00 68 1009.0
20260507190201 68 73 0.0 2.0 0.00 0.00 0.00 68 1009.1
20260507185658 68 196 3.0 7.0 0.00 0.00 0.00 68 1009.1
20260507185158 68 182 3.0 8.0 0.00 0.00 0.00 68 1009.1
20260507184658 68 222 1.0 10.0 0.00 0.00 0.00 68 1009.1
20260507184158 69 222 5.0 9.0 0.00 0.00 0.00 67 1009.0
20260507183658 69 232 4.0 7.0 0.00 0.00 0.00 67 1008.9
20260507183201 69 246 2.0 5.0 0.00 0.00 0.00 67 1008.9
20260507182704 69 211 2.0 4.0 0.00 0.00 0.00 67 1008.6
20260507182204 69 244 2.0 4.0 0.00 0.00 0.00 67 1008.4
20260507181701 69 184 0.0 2.0 0.00 0.00 0.00 67 1008.4
20260507181201 69 269 0.0 4.0 0.00 0.00 0.00 67 1008.3
20260507180658 69 249 2.0 6.0 0.00 0.00 0.00 66 1008.4
20260507180204 69 253 2.0 5.0 0.00 0.00 0.00 66 1008.6
20260507175701 69 204 2.0 4.0 0.00 0.00 0.00 66 1008.6
20260507175158 69 247 2.0 3.0 0.00 0.00 0.00 66 1008.6
20260507174701 69 199 0.0 5.0 0.00 0.00 0.00 66 1008.6
20260507174158 69 236 2.0 5.0 0.00 0.00 0.00 66 1008.7
20260507173658 69 250 3.0 7.0 0.00 0.00 0.00 66 1008.8
20260507173158 70 204 5.0 7.0 0.00 0.00 0.00 66 1008.8
20260507172658 70 111 0.0 0.0 0.00 0.00 0.00 65 1008.8
20260507172201 70 134 0.0 4.0 0.00 0.00 0.00 65 1008.8
20260507171659 70 238 3.0 5.0 0.00 0.00 0.00 65 1009.0
20260507171158 70 218 5.0 9.0 0.00 0.00 0.00 64 1009.1
20260507170701 70 186 4.0 8.0 0.00 0.00 0.00 64 1009.0
20260507170158 70 203 5.0 7.0 0.00 0.00 0.00 65 1009.1
20260507165658 70 226 4.0 11.0 0.00 0.00 0.00 64 1009.1
20260507165158 71 248 5.0 10.0 0.00 0.00 0.00 64 1008.9
20260507164701 71 225 10.0 10.0 0.00 0.00 0.00 63 1008.8
20260507164158 71 222 6.0 11.0 0.00 0.00 0.00 62 1008.8
20260507163658 71 194 3.0 9.0 0.00 0.00 0.00 62 1008.8
20260507163158 71 209 3.0 8.0 0.00 0.00 0.00 61 1008.6
20260507162659 71 244 6.0 10.0 0.00 0.00 0.00 61 1008.6
20260507162158 72 261 5.0 9.0 0.00 0.00 0.00 59 1008.5
20260507161701 72 244 7.0 8.0 0.00 0.00 0.00 59 1008.6
20260507161207 72 236 1.0 8.0 0.00 0.00 0.00 58 1008.5
20260507160707 72 59 7.0 7.0 0.00 0.00 0.00 57 1008.4
20260507160201 72 19 1.0 7.0 0.00 0.00 0.00 56 1008.3
20260507155658 72 244 3.0 7.0 0.00 0.00 0.00 57 1008.1
20260507155158 72 188 1.0 8.0 0.00 0.00 0.00 57 1008.2
20260507154701 72 63 7.0 13.0 0.00 0.00 0.00 55 1008.3
20260507154201 73 172 7.0 10.0 0.00 0.00 0.00 56 1008.5
20260507153658 72 92 5.0 15.0 0.00 0.00 0.00 57 1008.3
20260507153201 72 87 14.0 17.0 0.00 0.00 0.00 57 1008.0
20260507152658 73 73 3.0 12.0 0.00 0.00 0.00 54 1008.3
20260507152158 74 274 5.0 7.0 0.00 0.00 0.00 53 1008.4
20260507151701 75 221 3.0 4.0 0.00 0.00 0.00 54 1008.3
20260507151158 74 261 2.0 6.0 0.00 0.00 0.00 54 1008.3
20260507150658 74 205 3.0 8.0 0.00 0.00 0.00 55 1008.3
20260507150158 74 215 5.0 6.0 0.00 0.00 0.00 55 1008.1
20260507145658 73 214 3.0 7.0 0.00 0.00 0.00 56 1008.1
20260507145201 73 192 2.0 9.0 0.00 0.00 0.00 56 1008.1
20260507144701 73 220 3.0 9.0 0.00 0.00 0.00 55 1008.1
20260507144204 73 238 5.0 7.0 0.00 0.00 0.00 55 1008.2
20260507143701 74 171 0.0 12.0 0.00 0.00 0.00 55 1008.1
20260507143201 74 240 7.0 8.0 0.00 0.00 0.00 54 1008.1
20260507142701 73 302 1.0 6.0 0.00 0.00 0.00 55 1008.1
20260507142201 73 264 2.0 10.0 0.00 0.00 0.00 56 1008.2
20260507141701 73 289 4.0 15.0 0.00 0.00 0.00 54 1008.4
20260507141201 73 25 5.0 10.0 0.00 0.00 0.00 54 1008.2
20260507140701 73 338 9.0 10.0 0.00 0.00 0.00 54 1008.4
20260507140201 73 10 4.0 19.0 0.00 0.00 0.00 54 1008.0
20260507135701 74 115 4.0 11.0 0.00 0.00 0.00 53 1008.4
20260507135158 74 39 6.0 13.0 0.00 0.00 0.00 52 1008.4
20260507134701 74 299 7.0 7.0 0.00 0.00 0.00 52 1008.4
20260507134158 74 138 0.0 6.0 0.00 0.00 0.00 52 1008.5
20260507133707 74 300 2.0 11.0 0.00 0.00 0.00 52 1008.5
20260507133201 74 271 7.0 17.0 0.00 0.00 0.00 52 1008.5